This demonstration page uses our WeatherBlox Daily Observations layout. Learn more.

Left ArrowRight Arrow

30.00354, -91.81873

Hourly Observations for August 26, 2022

Temp ( °F °C ) Dew Point ( °F °C ) Humidity (%) Winds ( mph kmh ) Pressure ( in mb ) Visibility ( mi km ) Precip ( " mm )
12:16 am 00:16 Mostly Cloudy 78 25.6 75 23.9 90 90 N 7 11 29.97 1015 10 16 0.00 0.00
12:22 am 00:22 Mostly Cloudy 78 25.6 76 24.4 93 93 N 6 9 29.97 1015 10 16 0.00 0.00
12:37 am 00:37 Cloudy 78 25.6 75 23.9 90 90 N 5 7 29.98 1015 10 16 0.00 0.00
12:53 am 00:53 Cloudy with Light Rain 78 25.6 76 24.4 93 93 E 6 9 29.97 1015 9 14 0.01 0.13
1:02 am 01:02 Mostly Cloudy with Light Rain 78 25.6 76 24.4 93 93 SE 3 6 29.97 1015 9 14 0.01 0.13
1:53 am 01:53 Clear 77 25 73 22.8 88 88 SSE 5 7 29.96 1015 10 16 0.01 0.13
2:53 am 02:53 Partly Cloudy 77 25 74 23.3 90 90 S 6 9 29.96 1015 10 16 0.00 0.00
3:53 am 03:53 Cloudy 76 24.4 72 22.2 88 88 S 3 6 29.96 1014 10 16 0.00 0.00
4:53 am 04:53 Cloudy 76 24.4 73 22.8 91 91 SE 3 6 29.95 1014 10 16 0.00 0.00
5:53 am 05:53 Cloudy 77 25 74 23.3 90 90 Calm 29.95 1014 10 16 0.00 0.00
6:08 am 06:08 Cloudy 76 24.4 74 23.3 94 94 SSE 5 7 29.96 1014 10 16 0.00 0.00
6:53 am 06:53 Mostly Cloudy 76 24.4 74 23.3 94 94 ESE 6 9 29.96 1014 10 16 0.01 0.13
7:06 am 07:06 Partly Cloudy 76 24.4 74 23.3 94 94 E 5 7 29.96 1014 10 16 0.00 0.00
7:53 am 07:53 Sunny 78 25.6 75 23.9 90 90 SE 3 6 29.97 1015 10 16 0.00 0.00
8:39 am 08:39 Partly Cloudy with Nearby Thunderstorms 80 26.7 75 23.9 85 85 SE 6 9 29.98 1015 10 16 0.00 0.00
8:53 am 08:53 Mostly Cloudy with Nearby Thunderstorms 79 26.1 75 23.9 88 88 SSE 8 13 29.98 1015 10 16 0.01 0.13
9:13 am 09:13 Cloudy with Rain 76 24.4 72 22.2 88 88 WSW 3 6 29.99 1016 3 5 0.02 0.51
9:21 am 09:21 Cloudy with Rain 76 24.4 73 22.8 91 91 Calm 30.00 1016 2 3 0.07 1.78
9:32 am 09:32 Cloudy with Light Rain 76 24.4 73 22.8 91 91 Calm 30.00 1016 3 5 0.10 2.54
9:53 am 09:53 Cloudy 76 24.4 73 22.8 91 91 Calm 30.00 1016 10 16 0.10 2.54
10:53 am 10:53 Partly Cloudy 79 26.1 73 22.8 82 82 SSE 3 6 30.00 1016 10 16 0.00 0.00
11:53 am 11:53 Sunny 79 26.1 74 23.3 85 85 S 5 7 29.98 1015 10 16 0.00 0.00
12:53 pm 12:53 Mostly Sunny 81 27.2 74 23.3 79 79 SSE 5 7 29.99 1016 10 16 0.00 0.00
1:13 pm 13:13 Mostly Cloudy 81 27.2 74 23.3 79 79 S 7 11 30.00 1016 10 16 0.00 0.00
1:27 pm 13:27 Mostly Cloudy 81 27.2 74 23.3 79 79 S 5 7 29.99 1016 10 16 0.00 0.00
1:53 pm 13:53 Mostly Cloudy 81 27.2 74 23.3 79 79 SSW 5 7 29.98 1015 10 16 0.00 0.00
2:53 pm 14:53 Cloudy 82 27.8 74 23.3 77 77 S 7 11 29.97 1015 10 16 0.00 0.00
3:21 pm 15:21 Cloudy with Nearby Thunderstorms 84 28.9 74 23.3 72 72 S 7 11 29.96 1014 10 16 0.00 0.00
3:42 pm 15:42 Mostly Cloudy 83 28.3 74 23.3 74 74 SSW 8 13 29.95 1014 10 16 0.00 0.00
3:53 pm 15:53 Partly Cloudy 83 28.3 73 22.8 72 72 SSW 9 15 29.94 1014 10 16 0.00 0.00
4:53 pm 16:53 Mostly Sunny 82 27.8 73 22.8 74 74 SSW 13 20 29.94 1014 10 16 0.00 0.00
5:53 pm 17:53 Partly Cloudy 81 27.2 74 23.3 79 79 SSW 6 9 29.95 1014 10 16 0.00 0.00
6:53 pm 18:53 Sunny 81 27.2 75 23.9 82 82 S 6 9 29.92 1013 10 16 0.00 0.00
7:50 pm 19:50 Mostly Cloudy 81 27 75 24 84 84 Calm 29.93 1013 10 16 0.00 0.00
7:53 pm 19:53 Mostly Cloudy 80 26.7 76 24.4 87 87 Calm 29.92 1013 10 16 0.00 0.00
8:33 pm 20:33 Partly Cloudy 79 26.1 75 23.9 88 88 Calm 29.93 1013 10 16 0.00 0.00
8:53 pm 20:53 Mostly Clear 78 25.6 75 23.9 90 90 SSE 6 9 29.93 1014 10 16 0.00 0.00
9:53 pm 21:53 Clear 77 25 74 23.3 90 90 SSE 6 9 29.96 1015 10 16 0.00 0.00
10:53 pm 22:53 Mostly Cloudy 77 25 74 23.3 90 90 ESE 5 7 29.98 1015 10 16 0.00 0.00
11:05 pm 23:05 Cloudy 77 25 75 23.9 94 94 ESE 3 6 29.99 1016 10 16 0.00 0.00
11:17 pm 23:17 Cloudy 78 25.6 75 23.9 90 90 ESE 5 7 29.99 1016 10 16 0.00 0.00
11:53 pm 23:53 Mostly Cloudy 77 25 74 23.3 90 90 Calm 29.98 1015 10 16 0.00 0.00

Powered by AerisWeather